Погода Казанская

Погода Казанская : погода сейчас, прогноз погоды и архив. Всё, что Вы хотите узнать о погоде Казанская!

Хотите узнать прогноз погоды Казанская? Тогда Вам сюда: Погода Казанская

Поиск расширенной информации на нашем сайте:

Другие новости

Новости СМИ2

Главная страница сайта

Новости сайта

03.07.2017

Напоминаем, что на нашем специализированном сайте Метеоцентр.Азия вы можете получить высокодетализированные автоматические прогнозы погоды по пунктам России, СНГ и мира в авиационном формате (включающие направление и скорость ветра, видимость, явления погоды, количество и форму облачности, нижнюю и верхнюю границу облачности).


Погода Казанская - сегодня

Время (UTC), дата Ветер
(°,м/с) 
Видим.   Явления Облачность Т
(°С)
Тd
(°С)
f(%) Тe
(°С)
Pmin
(гПа)
dP
(гПа)
Po
(мм)
O2
(г/м3)
Тmin Tmax R s Состояние
почвы
00 18.08.17 080 (В) 20000 м    ясно 
+18.8 +10.4 58 +21  1020.2  0.5  759  284           
03 18.08.17 тихо ()   20000 м    3/0 средняя 
[Ac trans]
+15.5 +13.6 88 +22  1021.2  0.9  760  287  +15.3        сухая 
06 18.08.17 100 (В) 20000 м    8/0 средняя 
[Ac As]
+24.8 +10.9 42 +27  1021.5  0.6  760  279           
09 18.08.17 070 (В) 20000 м    3/0 средняя 
[Ac As]
+31.9 +9.3 25 +32  1021  0.6  760  273           
12 18.08.17 080 (В) 20000 м    8/4 600 м кучево-дожд., средняя 
[Cb cap|Ac As]
+32.5 +4.9 18 +33  1019.9  -1.1  759  273           
15 18.08.17 050 (СВ) 3{11}  20000 м    8/3 600 м кучево-дожд., средняя 
[Cb cap|Ac As]
+29.7 +8 26 +30  1020  -0.1  759  275    +34.5       
18 18.08.17 тихо ()   20000 м    3/0 средняя 
[Ac cast]
+22.6 +8.1 39 +23  1021.2  760  281           
21 18.08.17 270 (З) 20000 м    6/0 
[]
+18.2 +14.2 77 +27  1021.6  0.3  760  284           
00 19.08.17 тихо ()   20000 м    ясно 
+16 +13.7 86 +22  1022.1  0.4  760  287           
03 19.08.17 тихо ()   20000 м    ясно 
+15.3 +13.2 87 +21  1023.1  0.9  761  288  +15        сухая 
06 19.08.17 090 (В) 20000 м    ясно 
+26.7 +8.6 32 +27  1023.2  0.4  761  278           
09 19.08.17 050 (СВ) 20000 м    ясно 
+30.9 +5.8 21 +31  1022.3  -0.7  761  275           
12 19.08.17 050 (СВ) 20000 м    ясно 
+31.9 +6.3 20 +32  1021.3  -1  760  273           
15 19.08.17 060 (СВ) 20000 м    ясно 
+30 +6.1 22 +30  1021.3  0.1  760  275    +32.3       
18 19.08.17 280 (З) 20000 м    ясно 
+20.5 +11.5 56 +23  1022.2  0.6  760  283           
21 19.08.17 290 (З) 20000 м    ясно 
+17.8 +11.7 67 +22  1022.1  -0.2  760  285           
00 20.08.17 290 (З) 20000 м    ясно 
+16 +13.1 83 +22  1022.1  -0.1  760  287           
03 20.08.17 300 (СЗ) 20000 м    3/0 средняя 
[Ac trans]
+15.5 +14.1 91 +24  1022.2  0.1  760  287  +14.9        сухая 
06 20.08.17 100 (В) 20000 м    ясно 
+26.7 +8.6 32 +27  1021.6  -0.3  760  278           
09 20.08.17 070 (В) 20000 м    1/0 средняя 
[Ac cast]
+33 +6.9 20 +33  1020.2  -1.2  759  272           
12 20.08.17 120 (ЮВ) 20000 м    8/4 1000 м средняя, верхняя 
[Cu med, cong|Ac cuf|Cc]
+35.1 +4.9 15 +35  1018.8  -1.2  758  270           
15 20.08.17 250 (З) 20000 м  в посл. час гроза{ливн. осадки}  8/6 600 м кучево-дожд., средняя, верхняя 
[Cb cap|Ac cast|Ci sp]
+22.3 +19.3 83 +39  1018.7  -1.2  758  278    +35.5     
18 20.08.17 тихо ()   20000 м  {гроза, ливн. осадки}  9/6 600 м кучево-дожд., средняя 
[Cb cap|Ac trans]
+19.8 +17.7 88 +33  1019.2  0.5  758  281           
21 20.08.17 120 (ЮВ) 20000 м    ясно 
+19.2 +12.2 64 +24  1019.5  0.3  758  283           
00 21.08.17 110 (В) 20000 м    6/0 средняя 
[Ac trans]
+18.3 +14.6 79 +28  1019.5  0.1  758  283           
Время (UTC), дата Ветер
(°,м/с) 
Видим.   Явления Облачность Т
(°С)
Тd
(°С)
f(%) Тe
(°С)
Pmin
(гПа)
dP
(гПа)
Po
(мм)
O2
(г/м3)
Тmin Tmax R s Состояние
почвы

Для получения пояснительной информации подведите курсор к названию столбца.

ПОГОДА Казанская - архив

Всё, что Вы хотите узнать о погоде Казанская - удобно и подробно!

Выберите нужную дату (начиная с 1 января 2015* года) и нажмите кнопку "Найти".
Будут отображены архивные сводки погоды по пункту Казанская, начиная с указанной даты.


Отображать данные в формате CSV (для использования в таблицах Excel)


Внимание! Наш архив погоды предназначен исключительно для личного некоммерческого использования в познавательных целях. Если Вам необходимы официальные справки о состоянии погоды (для производственных, юридических, коммерческих и т.п. целей), обращайтесь в органы Росгидромета.

*Примечание: данная дата относится к архиву по метеостанциям СССР (Россия, СНГ, Балтия).
Архив по метеостанциям Зарубежной Европы и Азии (кроме Китая) хранится 10 дней, по другим регионам земного шара (Китай, Африка, Америка, Австралия, Океания) - 1 день.

Казанская - район местоположения метеостанции


Название, широта, долгота, высота метеостанции:
Казанская 49.8°ш. 41.2°д. 72 м над ур. моря [Российская Федерация]

Дополнительная информация

В oтличие oт бoльшинства пoгoдных сайтoв мы публикуем пoдрoбную метеoинфoрмацию в детальнoм прoфессиoнальнoм фoрмате.

Характеристики температуры и влажнoсти вoздуха измеряются на высoте 2 м в тени вдали oт зданий и деревьев.
Скoрoсть ветра измеряется на высoте 10 м (на урoвне рoста челoвека скoрoсть ветра ниже в 1.5-2 раза). Если метеoстанция нахoдится в гoрoде или в лесу, тo скoрoсть ветра занижена на 2-4 м/с пo сравнению с oткрытым местoм. Скoрoсть ветра над акватoриями крупных рек и oзёр, а также на вершинах хoлмoв на 2-5 м/с выше, чем в oбычных услoвиях.
Атмoсфернoе давление в разных тoчках местнoсти мoжет значительнo oтличаться oт давления на метеoстанции, в зависимoсти oт услoвий рельефа (при пoдъёме на 10 м давление пoнижается примернo на 1 мм рт.ст.).